Cozumel Airport, Mexico

10:00 AM EST on August 25, 2016 (GMT -0500)
Cozumel International

Weather History for MMCZ - June, 2013

Change the Weather History Date:

Sunday, June 30, 2013

  Actual Average Record
Temperature  
Mean Temperature 76 °F -  
Max Temperature 84 °F 88 °F 91 °F (2000)
Min Temperature 69 °F 76 °F 69 °F (2012)
Cooling Degree Days 12    
Growing Degree Days 26 (Base 50)    
Moisture  
Dew Point 72 °F    
Average Humidity 90    
Maximum Humidity 100    
Minimum Humidity 70    
Precipitation  
Precipitation 0.00 in - - ()
Sea Level Pressure  
Sea Level Pressure 29.86 in    
Wind  
Wind Speed 2 mph ()    
Max Wind Speed 10 mph    
Max Gust Speed -    
Visibility 7.2 miles    
Events      
Averages and records for this station are not official NWS values.
T = Trace of Precipitation, MM = Missing Value Source: Averaged Metar Reports

Daily Weather History Graph

Daily Weather History Graph

Search for Another Location

Airport or City:

Trip Planner

Search our weather history database for the weather conditions in past years. The results will help you decide how hot, cold, wet, or windy it might be!

Date:

Astronomy

Jun. 30, 2013 Rise Set
Actual Time 6:10 AM CDT 7:32 PM CDT
Civil Twilight 5:46 AM CDT 7:56 PM CDT
Nautical Twilight 5:16 AM CDT 8:26 PM CDT
Astronomical Twilight 4:46 AM CDT 8:56 PM CDT
Moon 12:32 AM CDT (6/30) 1:18 PM CDT (6/30)
Length of Visible Light 14h 10m
Length of Day
13h 21m
Last Quarter, 45% of the Moon is Illuminated
Jun 30
Last Quarter
Jul 8
New
Jul 15
First Quarter
Jul 22
Full
Jul 29
Last Quarter

Hourly Weather History & Observations

Time (CDT) Temp. Heat Index Dew Point Humidity Pressure Visibility Wind Dir Wind Speed Gust Speed Precip Events Conditions
12:44 AM 73.4 °F - 73.4 °F 100% 29.86 in 7.0 mi Calm Calm - N/A   Scattered Clouds
1:57 AM 73.4 °F - 73.4 °F 100% 29.86 in 7.0 mi Calm Calm - N/A   Scattered Clouds
2:41 AM 71.6 °F - 71.6 °F 100% 29.85 in 7.0 mi Calm Calm - N/A   Scattered Clouds
3:48 AM 71.6 °F - 71.6 °F 100% 29.87 in 7.0 mi Calm Calm - N/A   Scattered Clouds
4:47 AM 71.6 °F - 71.6 °F 100% 29.84 in 7.0 mi Calm Calm - N/A   Scattered Clouds
5:57 AM 71.6 °F - 71.6 °F 100% 29.84 in 7.0 mi Calm Calm - N/A   Scattered Clouds
6:49 AM 69.8 °F - 69.8 °F 100% 29.86 in 7.0 mi Calm Calm - N/A   Scattered Clouds
7:43 AM 73.4 °F - 73.4 °F 100% 29.86 in 8.0 mi Calm Calm - N/A   Scattered Clouds
8:42 AM 75.2 °F - 75.2 °F 100% 29.87 in 8.0 mi Calm Calm - N/A   Mostly Cloudy
9:40 AM 80.6 °F 86.2 °F 75.2 °F 84% 29.90 in 8.0 mi Calm Calm - N/A   Mostly Cloudy
10:44 AM 80.6 °F 86.2 °F 75.2 °F 84% 29.87 in 8.0 mi NW 6.9 mph - N/A   Mostly Cloudy
11:48 AM 80.6 °F 86.2 °F 75.2 °F 84% 29.88 in 8.0 mi WNW 4.6 mph - N/A   Mostly Cloudy
12:50 PM 82.4 °F 89.5 °F 75.2 °F 79% 29.86 in 7.0 mi WNW 6.9 mph - N/A   Mostly Cloudy
1:44 PM 77.0 °F - 73.4 °F 89% 29.87 in 7.0 mi SSE 8.1 mph - N/A   Mostly Cloudy
2:40 PM 77.0 °F - 73.4 °F 89% 29.84 in 7.0 mi South 4.6 mph - N/A   Mostly Cloudy
3:40 PM 84.2 °F 90.9 °F 73.4 °F 70% 29.87 in 7.0 mi SSE 6.9 mph - N/A   Mostly Cloudy
4:40 PM 80.6 °F 85.4 °F 73.4 °F 79% 29.84 in 7.0 mi North 4.6 mph - N/A   Mostly Cloudy
5:40 PM 75.2 °F - 71.6 °F 89% 29.83 in 7.0 mi NNW 9.2 mph - N/A   Mostly Cloudy
6:40 PM 75.2 °F - 71.6 °F 89% 29.83 in 7.0 mi North 6.9 mph - N/A   Overcast
7:40 PM 75.2 °F - 69.8 °F 83% 29.87 in 7.0 mi NW 10.4 mph - N/A   Overcast
8:40 PM 75.2 °F - 69.8 °F 83% 29.88 in 7.0 mi NW 10.4 mph - N/A   Overcast
9:40 PM 73.4 °F - 69.8 °F 88% 29.92 in 7.0 mi NNW 5.8 mph - N/A   Overcast
10:44 PM 71.6 °F - 69.8 °F 94% 29.89 in 7.0 mi North 6.9 mph - N/A   Overcast
11:47 PM 73.4 °F - 68.0 °F 83% 29.89 in 7.0 mi North 8.1 mph - N/A   Overcast